Location: *
(43.9905°S, 176.4941°W)
Time: 14:23:17
(UTC+00:00)

Cosmos 1943 Rocket - Pass Details

Date: 08 December 2019
Orbit: 812 x 844 km, 71.0° (Epoch: 23 January)

Event Time Altitude Azimuth Distance (km) Brightness Sun altitude
Exits shadow 10:39:45 20° 311° (NW) 1,829 3.7 -22.0°
Maximum altitude 10:43:30 53° 240° (WSW) 1,012 2.8 -22.2°
Drops below altitude 10° 10:48:57 10° 163° (SSE) 2,436 5.4 -22.4°
Sets 10:51:28 0° 158° (SSE) 3,374 6.2 -22.5°
